User: anonymous   Login
Location: Brabourne
(51.1333°N, 1.0000°E)
Time: 06:37:00
(UTC+00:00)
Language:

Cosmos 2098 Rocket - Orbit

View from above orbital plane
View from above orbital plane
View from above satellite
View from above satellite

Ground track
Ground track

The orbit data is extracted from the following two-line orbital elements,

1 20775U 90078B   21267.53809688  .00003345  00000-0  16061-3 0  9992
2 20775  82.9290 203.3598 0564908 194.8549 163.5447 14.36387949572306
Epoch (UTC): 24 September 2021 12:54:51
Eccentricity: 0.0564908
inclination: 82.9290°
perigee height: 366 km
apogee height: 1174 km
right ascension of ascending node: 203.3598°
argument of perigee: 194.8549°
revolutions per day: 14.36387949
mean anomaly at epoch: 163.5447°
orbit number at epoch: 57230

The dashed part of the orbit path shows where the satellite is in the earth's shadow,  

DLR